Regional Weather Roundup
Issued by NWS New Orleans/Baton Rouge, LA

Home | Current Version | Previous Version | Graphics & Text | Print | Product List | Glossary On
Versions: 1 2 3 4 5 6 7 8 9 10 11 12 13 14 15 16 17 18 19 20 21 22 23 24 25 26 27 28 29 30 31 32 33 34 35 36 37 38 39 40 41 42 43 44 45 46 47 48 49 50
797
ASUS44 KLIX 021010
RWRLIX
NEW ORLEANS REGIONAL WEATHER ROUNDUP
NATIONAL WEATHER SERVICE NEW ORLEANS LA
500 AM CDT THU OCT 02 2014

NOTE: "FAIR" INDICATES FEW OR NO CLOUDS BELOW 12,000 FEET WITH NO
      SIGNIFICANT WEATHER AND/OR OBSTRUCTIONS TO VISIBILITY.
      SKY/WX - SKY CONDITION AND SIGNIFICANT WEATHER.
      TMP - AIR TEMPERATURE.     DP    - DEWPOINT TEMPERATURE.
      RH  - RELATIVE HUMIDITY.   PRES  - PRESSURE.
      HI  - HEAT INDEX.          WCI   - WIND CHILL INDEX.

*  THESE STATIONS ARE NOT NWS OR FAA STATIONS AND ARE NOT UNDER
   NWS QUALITY CONTROL.

LAZ038-040-048-061>063-065>067-069-021100-
SOUTHEAST LOUISIANA

CITY           SKY/WX    TMP DP  RH WIND       PRES   REMARKS
N.O. AUDUBON     N/A     78  78  99 MISG        N/A
N.O. INTL ARPT PTCLDY    77  75  93 SE5       29.94R
N.O. LAKEFRONT CLEAR     77  76  96 SE6       29.94S
N.O. DOWNTOWN* PTSUNNY   79  73  83 CALM      29.95R
SLIDELL        MOCLDY    76  74  93 SE3       29.94S
BATON ROUGE    PTCLDY    75  73  93 SE5       29.93R
BOOTHVILLE     CLEAR     77  76  96 SE5       29.95S
BELLE CHASSE   CLEAR     78  74  87 SE5       29.94R
BOGALUSA*      CLOUDY    78  74  86 CALM      29.96S
GALLIANO*      NOT AVBL
NEW ROADS*     PTSUNNY   75  74  98 CALM      29.92S
GONZALES*      CLOUDY    75  75 100 CALM      29.93R FOG
HAMMOND*       MOCLDY    75  73  94 CALM      29.95S
HOUMA*         CLEAR    N/A N/A N/A CALM      29.93S
PORT FOURCHON* SUNNY     81  75  83 SE6       29.97R

$$

MSZ070-080>082-021100-
SOUTHERN MISSISSIPPI

CITY           SKY/WX    TMP DP  RH WIND       PRES   REMARKS
MCCOMB         CLOUDY    76  74  93 S7        29.95R
GULFPORT       MOCLDY    79  75  87 SE8       29.95S
BILOXI         CLOUDY    80  76  87 S6        29.96R
PASCAGOULA     CLOUDY    74  73  97 CALM      29.96S

$$

COASTAL OBSERVATIONS
LAKE AND NEARSHORE STATIONS

STATION/POSITION TIME  TEMP    WIND        PRES    WAVE
                       AIR SEA DIR/SP/G            HT/PER
                 (UTC) (F)     (DEG/KT/KT) (MB)    (FT/S)
PASCAGOULA       1000   81     150/  4/  6 1014.1
WAVELAND YACHT   1000   80     160/  6/  8 1013.5
GRAND ISLE       1000   80 81  150/  5/  7 1014.4
SOUTHWEST PASS   1000   80 85  160/  6/  9 1014.3
NEW CANAL        1000   77 77  140/  2/  4 1014.2
SHELL BEACH      1000   78 75  150/  4/  4 1013.8

OFFSHORE STATIONS

STATION/POSITION TIME  TEMP    WIND        PRES    WAVE
                       AIR SEA DIR/SP/G            HT/PER
                 (UTC) (F)     (DEG/KT/KT) (MB)    (FT/S)
64 S DAUPHIN ISL 0940   81 82  140/ 12/ 14 1014.8    2/ 3

$$




USA.gov is the U.S. government's official web portal to all federal, state and local government web resources and services.